Regional Weather Roundup
Issued by NWS Northern Indiana

Home | Current Version | Previous Version | Graphics & Text | Print | Product List | Glossary On
Versions: 1 2 3 4 5 6 7 8 9 10 11 12 13 14 15 16 17 18 19 20 21 22 23 24 25 26 27 28 29 30 31 32 33 34 35 36 37 38 39 40 41 42 43 44 45 46 47 48 49 50
000
ASUS43 KIWX 021510
RWRIWX

KIWX WEATHER ROUNDUP
NATIONAL WEATHER SERVICE NORTHERN INDIANA
1100 AM EDT MON MAY 02 2016

NOTE: "FAIR" INDICATES FEW OR NO CLOUDS BELOW 12,000 FEET WITH NO
SIGNIFICANT WEATHER AND/OR OBSTRUCTIONS TO VISIBILITY.

* THESE STATIONS ARE NOT UNDER NWS QUALITY CONTROL. THEY ALSO MAY NOT
  REPORT WEATHER SUCH AS PRECIPITATION OR FOG.

INZ001>027-021600-
NORTHERN INDIANA

CITY           SKY/WX    TMP DP  RH WIND       PRES   REMARKS
GARY*          MOSUNNY   50  46  87 MISG      30.06S
VALPARAISO     CLOUDY    47  44  90 NE9       30.02F
MICHIGAN CITY* CLOUDY    48  46  93 E5        30.03F
LAPORTE*       CLOUDY    49  49  99 NE9       30.02F
KNOX*          CLOUDY    46  41  81 N12       30.00F
SOUTH BEND     CLOUDY    47  43  86 NE9       30.02F
ELKHART*       CLOUDY    48  46  93 E7        30.02F
GOSHEN         CLOUDY    47  45  93 NE9       30.01F
MONTICELLO*    CLOUDY    49  46  87 NE8       29.99S
LOGANSPORT*    CLOUDY    46  46 100 NE6       29.99S FOG
ROCHESTER*     CLOUDY    50  48  93 NE6       30.00F
WARSAW*        CLOUDY    46  45  93 NE9       30.00F
ANGOLA*        CLOUDY    45  36  70 NE7       30.01S
FORT WAYNE     DRIZZLE   50  47  89 NE9       30.00F
HUNTINGTON*    CLOUDY   N/A N/A N/A NE7       29.98F
PERU/GRISSOM   CLOUDY    49  49 100 NE12      29.97S FOG
MARION*        CLOUDY    50  49  96 E7        29.99R FOG

$$
INZ028>050-021600-
CENTRAL INDIANA

CITY           SKY/WX    TMP DP  RH WIND       PRES   REMARKS
LAFAYETTE      CLOUDY    50  47  89 N12       29.98S
KOKOMO*        CLOUDY    52  46  82 NE10      29.97R
MUNCIE*        CLOUDY    54  50  86 SE5       30.00R
INDIANAPOLIS   CLOUDY    52  48  86 CALM      29.96F

$$
MIZ043>046-050>051-056>058-064>065-071>073-077>080-021600-
SOUTHWEST LOWER MICHIGAN

CITY           SKY/WX    TMP DP  RH WIND       PRES   REMARKS
BATTLE CREEK   CLOUDY    47  42  83 NE13      30.03S
BENTON HARBOR  PTSUNNY   53  44  71 E8        30.03S
COLDWATER*     CLOUDY    47  45  92 NE9       30.02S
HILLSDALE*     CLOUDY    45  45 100 NE8       30.01S FOG
HOLLAND        MOSUNNY   53  40  61 NE10      30.05S
GRAND RAPIDS   PTSUNNY   51  40  65 E13       30.05S
KALAMAZOO      CLOUDY    49  41  74 NE8       30.04S
STURGIS*       CLOUDY    46  44  93 NE8       30.01S
THREE RIVERS*  CLOUDY    46  44  90 NE6       30.04S

$$
OHZ001>008-015>018-024>025-021600-
NORTHWEST OHIO

CITY           SKY/WX    TMP DP  RH WIND       PRES   REMARKS
WAUSEON*         N/A     50 N/A N/A NE9       30.01S
DEFIANCE       CLOUDY    49  45  86 NE8       30.00F
FINDLAY        CLOUDY    51  43  74 NE12      30.00S
TOLEDO EXPRESS CLOUDY    50  46  86 NE7       30.01S
TOLEDO METCALF CLOUDY    51  45  79 NE6       30.03R
LIMA           CLOUDY    50  48  93 NE9       29.98F

$$
AND FOR LAKE MICHIGAN COASTAL AND OPEN LAKE BUOY OBSERVATIONS

STATION/POSITION TEMP    WIND        PRES    VSBY  WAVE
                 AIR SEA DIR/SP/G                  HT/PER
                 (F)     (DEG/KT/KT) (MB)    (MI)  (FT/S)
CALUMET HARBOR    46      10/ 12/ 15 1017.3R
MICHIGAN CITY     45      20/ 12/ 13   N/A
BURNS HARBOR      45      20/ 15/ 16 1017.3F
SAINT JOSEPH      49     330/  5/  7 1017.3S
SOUTH LAKE BUOY   41 40  360/  8/  8 1018.1R         1/ 4
4 MI NW BRIDGMAN  46 47                N/A           2/ 4

$$
&&




USA.gov is the U.S. government's official web portal to all federal, state and local government web resources and services.